sat.trackr.live / text

‹ back to catalog

STARLINK-2401

NORAD 47818 · 2021-018AH

PAYLOAD ACTIVE UNKNOWN

§ Identity

Operator
Country
US
Launch date
2021-03-11
Launch site
AFETR
Launch vehicle
Mass (kg)
RCS (m²)

External: N2YO · Heavens-Above · Gunter

§ Orbital elements

Epoch: 2026-09-07T17:20:29.346432Z

Period
87.46 min
Inclination
53.0231°
Eccentricity
0.0008068
Mean motion
16.46420336 rev/d
Perigee alt
143.5 km
Apogee alt
154.0 km
Semi-major
6,526.9 km
B*
2.6748e-4
RAAN
76.6678°
Arg perigee
277.9201°
Mean anomaly
82.0932°
Rev number
30,511

§ Raw data

STARLINK-24011 47818U 21018AH  26250.72256188  .13040775  12560-4  26748-3 0  99992 47818  53.0231  76.6678 0008068 277.9201  82.0932 16.46420336305113

JSON: /api/v1/satellites/47818 · /tle

For live sub-satellite position, see the globe view (requires WebGL).

§ Visibility from observer

Set your observer location to see the next 7 days of passes ≥ 10°. The values pass through the URL so the page stays shareable.

No JS? Fill the form by hand. The geolocation button needs JavaScript.